Akron Canton, OH

8:22 PM EDT on June 28, 2017 (GMT -0400)
Akron-Canton Regional

Weather History for KCAK - April, 2013

Change the Weather History Date:

Monday, April 8, 2013

  Actual Average Record
Temperature  
Mean Temperature 56 °F 46 °F  
Max Temperature 73 °F 57 °F 80 °F (2001)
Min Temperature 39 °F 36 °F 14 °F (1972)
Degree Days  
Heating Degree Days 9 19  
Month to date heating degree days 182 160  
Since 1 July heating degree days 5386 5555  
Cooling Degree Days 0 0  
Month to date cooling degree days 0 0  
Year to date cooling degree days 0 0  
Growing Degree Days 6 (Base 50)    
Moisture  
Dew Point 43 °F    
Average Humidity 63    
Maximum Humidity 85    
Minimum Humidity 41    
Precipitation  
Precipitation 0.01 in 0.12 in 0.85 in (1980)
Month to date precipitation 0.01 0.95  
Year to date precipitation 6.26 8.85  
Snow  
Snow 0.00 in 0.10 in - ()
Month to date snowfall T 1.2  
Since 1 July snowfall 46.9 45.9  
Snow Depth 0.00 in    
Sea Level Pressure  
Sea Level Pressure 29.96 in    
Wind  
Wind Speed 13 mph (South)    
Max Wind Speed 26 mph    
Max Gust Speed 32 mph    
Visibility 8 miles    
Events      
T = Trace of Precipitation, MM = Missing Value Source: NWS Daily Summary

Daily Weather History Graph

Daily Weather History Graph

Search for Another Location

Airport or City:

Trip Planner

Search our weather history database for the weather conditions in past years. The results will help you decide how hot, cold, wet, or windy it might be!

Date:

Astronomy

Apr. 08, 2013 Rise Set
Actual Time 6:57 AM EDT 7:58 PM EDT
Civil Twilight 6:29 AM EDT 8:26 PM EDT
Nautical Twilight 5:55 AM EDT 8:59 PM EDT
Astronomical Twilight 5:21 AM EDT 9:34 PM EDT
Moon 5:47 AM EDT (4/8) 6:30 PM EDT (4/8)
Length of Visible Light 13h 57m
Length of Day
13h 00m
Waning Crescent, 3% of the Moon is Illuminated
Apr 8
Waning Crescent
Apr 10
New
Apr 18
First Quarter
Apr 25
Full
May 2
Last Quarter

Hourly Weather History & Observations

Time (EDT) Temp. Windchill Dew Point Humidity Pressure Visibility Wind Dir Wind Speed Gust Speed Precip Events Conditions
12:51 AM 45.0 °F 42.6 °F 37.0 °F 74% 30.02 in 7.0 mi ENE 4.6 mph - N/A   Mostly Cloudy
1:51 AM 43.0 °F 38.2 °F 35.1 °F 74% 30.04 in 7.0 mi ENE 8.1 mph - N/A   Mostly Cloudy
2:51 AM 43.0 °F 38.8 °F 36.0 °F 76% 30.04 in 7.0 mi East 6.9 mph - N/A   Scattered Clouds
3:51 AM 41.0 °F 36.4 °F 35.1 °F 79% 30.02 in 6.0 mi ENE 6.9 mph - N/A   Haze
4:51 AM 39.9 °F 35.1 °F 35.1 °F 83% 30.01 in 6.0 mi ENE 6.9 mph - N/A   Haze
5:51 AM 39.0 °F 32.8 °F 34.0 °F 82% 30.00 in 5.0 mi ENE 9.2 mph - N/A   Haze
6:51 AM 39.9 °F 35.1 °F 35.1 °F 83% 30.02 in 5.0 mi East 6.9 mph - N/A   Haze
7:51 AM 42.1 °F 36.6 °F 36.0 °F 79% 30.03 in 4.0 mi East 9.2 mph - N/A   Haze
8:51 AM 46.9 °F - 37.9 °F 71% 30.03 in 5.0 mi SE 10.4 mph - N/A   Haze
9:51 AM 55.0 °F - 42.1 °F 62% 30.00 in 5.0 mi SSE 10.4 mph - N/A   Haze
10:51 AM 60.1 °F - 45.0 °F 57% 29.99 in 6.0 mi SSE 8.1 mph - N/A   Haze
11:51 AM 64.9 °F - 48.0 °F 54% 29.96 in 7.0 mi SSE 10.4 mph - 0.00 in   Overcast
12:51 PM 66.9 °F - 46.9 °F 49% 29.94 in 10.0 mi SW 16.1 mph - N/A   Mostly Cloudy
1:51 PM 70.0 °F - 46.0 °F 42% 29.91 in 10.0 mi SSW 23.0 mph 27.6 mph N/A   Mostly Cloudy
2:51 PM 71.1 °F - 46.0 °F 41% 29.88 in 10.0 mi SW 25.3 mph 29.9 mph N/A   Overcast
3:51 PM 69.1 °F - 46.0 °F 44% 29.88 in 10.0 mi SW 16.1 mph 27.6 mph N/A   Overcast
4:51 PM 69.1 °F - 46.0 °F 44% 29.88 in 9.0 mi SW 16.1 mph 21.9 mph N/A   Overcast
5:51 PM 70.0 °F - 48.0 °F 46% 29.87 in 8.0 mi SW 18.4 mph - N/A   Mostly Cloudy
6:51 PM 70.0 °F - 48.9 °F 47% 29.87 in 9.0 mi SW 13.8 mph 26.5 mph N/A   Mostly Cloudy
7:51 PM 69.1 °F - 48.0 °F 47% 29.87 in 9.0 mi SW 21.9 mph 27.6 mph N/A   Mostly Cloudy
8:51 PM 69.1 °F - 48.9 °F 49% 29.90 in 10.0 mi West 12.7 mph 23.0 mph N/A   Overcast
9:51 PM 66.0 °F - 50.0 °F 56% 29.91 in 10.0 mi SW 13.8 mph - N/A   Overcast
10:51 PM 66.0 °F - 50.0 °F 56% 29.93 in 10.0 mi SW 16.1 mph - N/A   Mostly Cloudy
11:51 PM 64.9 °F - 52.0 °F 63% 29.95 in 10.0 mi WSW 12.7 mph - 0.01 in   Overcast